1496808000.31,53688,15.94,73544.8,2.49,1.75,1.75,0,*72
1496808001.54,53689,15.94,73546.8,2.49,1.63,1.63,0,*73
1496808002.77,53690,15.94,73546.8,2.49,2.05,2.13,0,*7C
1496808003.97,53691,15.94,73544.3,2.49,2.39,2.35,0,*76
1496808005.23,53692,15.94,73542.8,2.47,2.09,2.13,0,*7C
1496808006.48,53693,15.94,73544.3,2.47,2.25,2.25,0,*76
1496808007.71,53694,15.94,73546.5,2.49,2.39,2.39,0,*7F
1496808008.96,53695,15.94,73542.0,2.51,2.25,2.25,0,*77
1496808010.22,53696,16.0,73546.5,2.51,2.17,2.25,0,*75
1496808011.45,53697,15.94,73544.8,2.49,2.01,1.93,0,*74
1496808012.63,53698,15.94,73544.0,2.49,1.79,1.83,0,*76
1496808013.81,53699,15.94,73546.3,2.49,1.79,1.79,0,*72
1496808014.99,53700,15.94,73548.5,2.49,1.79,1.75,0,*7F
1496808016.22,53701,15.94,73544.8,2.49,1.63,1.55,0,*77
1496808017.42,53702,15.94,73548.3,2.49,1.75,1.67,0,*72
1496808018.6,53703,15.94,73548.5,2.49,1.79,1.83,0,*75
1496808019.81,53704,16.0,73550.0,2.47,1.75,1.75,0,*79
1496808021.04,53705,15.94,73546.8,2.47,1.71,1.75,0,*7C
1496808022.29,53706,15.94,73544.5,2.47,1.63,1.63,0,*7B
1496808023.53,53707,15.94,73546.5,2.47,1.59,1.51,0,*72
1496808024.78,53708,16.0,73546.5,2.47,1.63,1.59,0,*7C
1496808026.03,53709,15.94,73540.8,2.47,1.51,1.51,0,*74
1496808027.25,53710,16.0,73546.8,2.45,1.51,1.47,0,*79
1496808028.47,53711,15.94,73542.8,2.45,1.51,1.47,0,*78
1496808029.69,53712,15.94,73540.5,2.45,1.63,1.59,0,*75
1496808030.92,53713,15.94,73538.8,2.45,1.71,1.71,0,*7D
1496808032.17,53714,15.94,73538.5,2.47,1.71,1.71,0,*78
1496808033.37,53715,15.94,73540.3,2.45,1.71,1.75,0,*7F
1496808034.55,53716,15.94,73544.3,2.45,1.79,1.79,0,*78
1496808035.78,53717,15.94,73546.8,2.45,2.01,2.01,0,*79
1496808037.0,53718,15.94,73546.5,2.45,2.21,2.25,0,*72
1496808038.23,53719,15.94,73544.8,2.45,2.25,2.25,0,*77
1496808039.43,53720,16.0,73548.8,2.47,2.31,2.35,0,*7B
1496808040.63,53721,15.94,73544.5,2.47,2.31,2.31,0,*7E
1496808041.87,53722,15.94,73546.5,2.47,2.21,2.21,0,*7D
1496808043.05,53723,15.94,73546.8,2.45,2.31,2.31,0,*7E
1496808044.25,53724,15.94,73546.8,2.47,2.35,2.35,0,*7B
1496808045.48,53725,15.94,73544.3,2.47,2.35,2.43,0,*7B
1496808046.74,53726,16.0,73550.0,2.51,2.51,2.51,0,*7E
1496808047.96,53727,15.94,73544.3,2.49,2.55,2.55,0,*76
1496808049.19,53728,16.0,73546.8,2.49,2.55,2.55,0,*79
1496808050.45,53729,16.0,73548.8,2.51,2.51,2.51,0,*71
1496808051.7,53730,15.94,73546.5,2.51,2.55,2.55,0,*79
1496808052.94,53731,15.94,73546.3,2.51,2.55,2.55,0,*78
1496808054.19,53732,15.94,73546.3,2.51,2.55,2.55,0,*7B
1496808055.4,53733,15.94,73546.8,2.53,2.39,2.27,0,*77
1496808056.57,53734,15.94,73550.5,2.57,2.35,2.35,0,*7B
1496808057.8,53735,16.0,73554.5,2.53,2.43,2.43,0,*7E
1496808059.03,53736,15.94,73554.3,2.53,2.55,2.55,0,*7D
1496808060.25,53737,15.94,73550.3,2.53,2.55,2.55,0,*7C
1496808061.47,53738,15.94,73550.8,2.57,2.55,2.55,0,*77
1496808062.7,53739,15.94,73552.5,2.57,2.55,2.55,0,*76
1496808063.92,53740,15.94,73552.0,2.57,2.55,2.55,0,*78
1496808065.17,53741,16.0,73554.5,2.59,2.59,2.55,0,*7B
1496808066.35,53742,15.94,73550.5,2.61,2.61,2.61,0,*7F
1496808067.53,53743,15.94,73550.3,2.61,2.65,2.65,0,*7E
1496808068.76,53744,15.94,73552.3,2.61,2.73,2.77,0,*7D
1496808070.0,53745,15.94,73552.3,2.59,2.85,2.85,0,*73
1496808071.18,53746,15.94,73554.8,2.61,2.99,2.99,0,*7B
1496808072.4,53747,15.94,73554.8,2.65,3.23,3.23,0,*7E
1496808073.65,53748,15.94,73556.3,2.63,3.33,3.33,0,*77
1496808074.89,53749,15.94,73558.5,2.65,3.41,3.41,0,*70
1496808076.1,53750,15.94,73556.3,2.65,3.15,3.25,0,*7B
1496808077.31,53751,16.0,73556.0,2.67,2.65,2.65,0,*7B
1496808078.57,53752,16.0,73558.8,2.67,2.59,2.59,0,*78
1496808079.82,53753,16.0,73556.0,2.67,2.59,2.59,0,*79
1496808081.07,53754,16.0,73554.3,2.67,2.55,2.55,0,*7E
1496808082.32,53755,15.94,73552.5,2.67,2.55,2.59,0,*73
1496808083.52,53756,15.94,73554.3,2.69,2.35,2.35,0,*72
1496808084.78,53757,15.94,73550.8,2.69,2.09,2.01,0,*7B
1496808086.02,53758,15.94,73548.0,2.67,1.93,1.97,0,*76
1496808087.28,53759,15.94,73544.0,2.67,1.85,1.85,0,*73
1496808088.46,53760,15.94,73542.3,2.65,1.83,1.83,0,*7B
1496808089.71,53761,15.94,73540.5,2.67,1.85,1.93,0,*7F
1496808090.91,53762,15.94,73536.5,2.65,1.83,1.89,0,*73
1496808092.12,53763,15.94,73536.8,2.65,1.89,1.89,0,*78
1496808093.34,53764,15.94,73536.5,2.65,1.89,1.89,0,*7F
1496808094.57,53765,15.94,73538.8,2.65,2.21,2.17,0,*7B
1496808095.82,53766,15.94,73538.5,2.63,2.17,2.25,0,*7A
1496808097.0,53767,15.94,73540.0,2.65,2.27,2.31,0,*7B
1496808098.18,53768,15.94,73538.5,2.65,2.27,2.27,0,*73
1496808099.41,53769,15.94,73542.8,2.65,2.09,2.17,0,*7D
1496808100.64,53770,15.94,73542.8,2.65,2.17,2.09,0,*75
1496808101.87,53771,16.0,73542.5,2.65,2.05,2.05,0,*7B
1496808103.05,53772,15.94,73536.8,2.65,2.31,2.31,0,*78
1496808104.25,53773,15.94,73536.0,2.65,2.31,2.39,0,*71
1496808105.5,53774,15.94,73536.5,2.63,2.13,2.25,0,*7D
1496808106.73,53775,15.94,73536.3,2.65,2.17,2.21,0,*7A
1496808107.96,53776,15.94,73538.0,2.65,2.09,2.09,0,*7C
1496808109.13,53777,15.94,73540.8,2.65,2.31,2.31,0,*7D
1496808110.39,53778,15.94,73542.0,2.63,2.51,2.51,0,*74
1496808111.62,53779,15.94,73546.0,2.65,2.51,2.51,0,*73
1496808112.86,53780,15.94,73544.8,2.65,2.43,2.43,0,*75
1496808114.09,53781,16.0,73548.3,2.65,2.51,2.43,0,*77
1496808115.27,53782,15.94,73546.5,2.65,2.61,2.65,0,*73
1496808116.5,53783,15.94,73546.5,2.65,2.77,2.89,0,*77
1496808117.74,53784,15.94,73546.8,2.69,2.95,3.03,0,*73
1496808118.96,53785,15.94,73546.5,2.69,2.85,2.91,0,*79
1496808120.22,53786,15.94,73544.0,2.69,2.81,2.85,0,*7B
1496808121.48,53787,15.94,73550.0,2.69,2.81,2.73,0,*73
1496808122.71,53788,16.0,73550.5,2.69,2.65,2.69,0,*7D
1496808123.97,53789,15.94,73546.8,2.69,2.59,2.59,0,*70
1496808125.22,53790,15.94,73546.3,2.69,2.59,2.59,0,*78
1496808126.48,53791,15.94,73546.3,2.69,2.55,2.55,0,*79
1496808127.71,53792,15.94,73544.5,2.71,2.59,2.59,0,*73
1496808128.94,53793,15.94,73548.0,2.71,2.59,2.47,0,*7D
1496808130.17,53794,15.94,73546.3,2.71,2.59,2.51,0,*7D
1496808131.41,53795,16.0,73550.8,2.71,2.59,2.51,0,*7C
1496808132.59,53796,16.0,73554.8,2.71,2.61,2.61,0,*77
1496808133.8,53797,16.0,73552.8,2.71,2.61,2.69,0,*7E
1496808135.0,53798,15.94,73550.5,2.71,2.61,2.69,0,*71
1496808136.23,53799,16.0,73554.3,2.73,2.61,2.69,0,*72
1496808137.48,53800,16.0,73554.8,2.73,2.69,2.69,0,*75
1496808138.75,53801,15.94,73550.5,2.73,2.59,2.59,0,*74
1496808140.01,53802,16.0,73550.0,2.73,2.47,2.59,0,*78
1496808141.27,53803,15.94,73550.0,2.73,2.47,2.47,0,*76
1496808142.51,53804,15.94,73548.5,2.73,2.51,2.61,0,*72
1496808143.76,53805,16.0,73552.5,2.73,2.59,2.61,0,*7B
1496808144.98,53806,16.0,73554.5,2.75,2.73,2.73,0,*75
1496808146.22,53807,15.94,73548.8,2.75,2.77,2.81,0,*7D
1496808147.41,53808,16.0,73554.5,2.75,2.61,2.61,0,*7B
1496808148.65,53809,16.0,73554.0,2.75,2.51,2.51,0,*7A
1496808149.86,53810,15.94,73552.3,2.75,2.27,2.39,0,*7D
1496808151.1,53811,15.94,73550.3,2.75,2.43,2.51,0,*70
1496808152.33,53812,16.0,73548.0,2.73,2.35,2.39,0,*7A
1496808153.57,53813,15.94,73552.0,2.73,2.35,2.17,0,*77
1496808154.8,53814,16.0,73550.3,2.75,2.05,2.05,0,*76
1496808156.03,53815,16.0,73548.8,2.75,1.93,1.93,0,*77
1496808157.29,53816,15.94,73550.5,2.73,1.97,1.97,0,*72
1496808158.54,53817,15.94,73550.5,2.73,1.97,1.97,0,*73
1496808159.8,53818,15.94,73550.5,2.73,2.01,2.01,0,*7C
1496808161.03,53819,16.0,73552.5,2.71,2.13,2.13,0,*7F
1496808162.3,53820,16.0,73554.3,2.73,2.17,2.17,0,*77
1496808163.53,53821,16.0,73554.3,2.71,2.13,2.17,0,*70
1496808164.76,53822,15.94,73550.5,2.71,2.01,2.01,0,*77
1496808165.98,53823,16.0,73554.3,2.73,1.79,1.75,0,*78
1496808167.19,53824,15.94,73552.8,2.73,1.79,1.75,0,*7F
1496808168.4,53825,16.0,73554.3,2.71,1.85,1.79,0,*73
1496808169.62,53826,16.0,73554.3,2.71,1.97,1.89,0,*7C
1496808170.85,53827,15.94,73550.5,2.71,1.85,1.89,0,*7E
1496808172.07,53828,15.94,73548.8,2.71,1.97,1.97,0,*7D
1496808173.34,53829,16.0,73554.0,2.69,1.85,1.85,0,*75
1496808174.6,53830,15.94,73552.0,2.69,1.85,1.85,0,*7D
1496808175.85,53831,16.0,73552.8,2.69,1.93,1.93,0,*7C
1496808177.11,53832,16.0,73552.8,2.69,1.97,1.93,0,*7B
1496808178.36,53833,16.0,73554.5,2.69,1.97,1.93,0,*7A
1496808179.61,53834,16.0,73552.5,2.69,2.09,2.01,0,*71
1496808180.87,53835,16.0,73556.8,2.67,2.25,2.13,0,*73
1496808182.12,53836,16.0,73552.5,2.69,2.21,2.09,0,*71
1496808183.37,53837,16.0,73550.0,2.69,1.97,1.97,0,*7A
1496808184.63,53838,15.94,73550.3,2.69,1.97,1.97,0,*75
1496808185.88,53839,16.0,73550.8,2.69,1.97,1.97,0,*74
1496808187.13,53840,16.0,73548.5,2.69,1.93,1.93,0,*7A
1496808188.4,53841,16.0,73554.3,2.69,1.85,1.85,0,*7B
1496808189.6,53842,16.0,73552.8,2.67,1.75,1.75,0,*76
1496808190.86,53843,16.0,73554.8,2.69,1.93,1.85,0,*7E
1496808192.12,53844,16.0,73554.0,2.69,1.93,1.85,0,*79
1496808193.35,53845,16.0,73552.5,2.67,1.85,1.83,0,*77
1496808194.6,53846,15.94,73554.3,2.67,1.93,1.85,0,*75
1496808195.84,53847,15.94,73554.5,2.67,1.85,1.75,0,*7C
1496808197.08,53848,15.94,73556.8,2.67,1.63,1.63,0,*7C
1496808198.3,53849,16.0,73552.0,2.67,1.47,1.41,0,*7B
1496808199.53,53850,16.0,73554.5,2.67,1.41,1.29,0,*7B
1496808200.78,53851,16.0,73550.8,2.67,1.37,1.29,0,*7B
1496808202.01,53852,16.0,73548.3,2.65,1.25,1.25,0,*75
1496808203.25,53853,16.0,73548.8,2.65,1.33,1.21,0,*77
1496808204.51,53854,16.0,73550.0,2.63,1.29,1.17,0,*78
1496808205.76,53855,15.94,73540.8,2.63,1.21,1.17,0,*71
1496808207.02,53856,16.0,73542.5,2.63,1.21,1.21,0,*77
1496808208.28,53857,16.0,73542.0,2.63,1.29,1.21,0,*7E
1496808209.51,53858,15.94,73536.3,2.63,1.33,1.41,0,*7C
1496808210.7,53859,16.0,73544.0,2.61,1.43,1.41,0,*78
1496808211.92,53860,16.0,73544.0,2.61,1.43,1.33,0,*77
1496808213.13,53861,16.0,73544.5,2.63,1.43,1.41,0,*71
1496808214.35,53862,16.0,73542.5,2.59,1.47,1.41,0,*7F
1496808215.6,53863,16.0,73542.3,2.59,1.47,1.47,0,*78
1496808216.84,53864,16.0,73536.8,2.59,1.59,1.51,0,*77
1496808218.06,53865,16.0,73538.3,2.61,1.51,1.47,0,*72
1496808219.28,53866,16.0,73536.5,2.59,1.51,1.41,0,*7C
1496808220.5,53867,16.0,73538.0,2.59,1.47,1.41,0,*7A
1496808221.74,53868,16.0,73536.5,2.59,1.47,1.47,0,*73
1496808222.93,53869,16.0,73536.3,2.57,1.47,1.41,0,*7A
1496808224.1,53870,16.0,73534.5,2.57,1.41,1.41,0,*74
1496808225.29,53871,16.0,73542.3,2.57,1.51,1.41,0,*74
1496808226.53,53872,16.0,73542.0,2.57,1.37,1.37,0,*76
1496808227.76,53873,16.0,73540.3,2.57,1.37,1.37,0,*77
1496808228.96,53874,16.0,73538.5,2.57,1.47,1.41,0,*76
1496808230.19,53875,15.94,73536.3,2.57,1.29,1.29,0,*71
1496808231.39,53876,16.0,73532.8,2.57,1.41,1.29,0,*7C
1496808232.63,53877,16.0,73534.0,2.53,1.37,1.33,0,*73
1496808233.85,53878,16.0,73534.3,2.53,1.47,1.43,0,*7C
1496808235.06,53879,16.0,73536.3,2.53,1.59,1.59,0,*79
1496808236.28,53880,16.0,73536.3,2.53,1.59,1.47,0,*70
1496808237.51,53881,16.0,73538.0,2.53,1.67,1.59,0,*73
1496808238.73,53882,16.0,73540.3,2.53,1.67,1.67,0,*7D
1496808239.95,53883,16.0,73538.3,2.53,1.59,1.47,0,*73
1496808241.18,53884,15.94,73534.3,2.53,1.47,1.37,0,*7C
1496808242.42,53885,16.0,73536.3,2.53,1.37,1.37,0,*7A
1496808243.65,53886,16.0,73536.0,2.53,1.37,1.25,0,*7A
1496808244.89,53887,16.0,73542.0,2.53,1.37,1.37,0,*78
1496808246.12,53888,16.0,73540.8,2.51,1.41,1.33,0,*70
1496808247.36,53889,16.0,73540.0,2.51,1.43,1.43,0,*74
1496808248.58,53890,16.0,73546.3,2.49,1.43,1.43,0,*75
1496808249.8,53891,16.0,73544.0,2.51,1.43,1.41,0,*7F
1496808251.03,53892,16.0,73544.8,2.49,1.63,1.55,0,*72
1496808252.27,53893,16.0,73546.5,2.51,1.51,1.43,0,*7C
1496808253.48,53894,16.0,73548.5,2.49,1.41,1.33,0,*74
1496808254.67,53895,16.0,73546.5,2.49,1.43,1.41,0,*72
1496808255.9,53896,16.0,73546.8,2.49,1.43,1.33,0,*74
1496808257.08,53897,16.0,73544.8,2.49,1.75,1.75,0,*72
1496808258.31,53898,16.0,73550.0,2.49,2.01,2.01,0,*7D
1496808259.55,53899,16.0,73546.5,2.49,2.17,2.17,0,*7C
1496808260.76,53900,16.0,73548.0,2.49,2.27,2.17,0,*7E
1496808261.98,53901,15.94,73542.8,2.51,2.25,2.27,0,*77
1496808263.21,53902,16.0,73550.8,2.51,2.39,2.27,0,*79
1496808264.46,53903,16.0,73548.8,2.51,2.47,2.47,0,*77
1496808265.71,53904,16.0,73550.3,2.51,2.55,2.55,0,*70
1496808266.91,53905,16.0,73548.5,2.57,2.61,2.55,0,*70
1496808268.11,53906,16.0,73552.0,2.57,2.55,2.61,0,*73
1496808269.34,53907,16.0,73554.3,2.57,2.55,2.59,0,*79
1496808270.56,53908,16.0,73554.5,2.57,2.55,2.55,0,*7A
1496808271.82,53909,16.0,73556.0,2.59,2.47,2.55,0,*76
1496808273.04,53910,16.0,73554.0,2.59,2.43,2.31,0,*78
1496808274.26,53911,16.0,73552.5,2.59,2.31,2.21,0,*7D
1496808275.48,53912,16.0,73544.5,2.61,2.09,1.97,0,*70
1496808276.71,53913,16.0,73544.5,2.61,2.01,1.93,0,*7D
1496808277.92,53914,16.0,73542.0,2.61,1.89,1.89,0,*72
1496808279.15,53915,16.0,73546.3,2.59,1.85,1.83,0,*7E
1496808280.38,53916,16.0,73548.0,2.61,1.89,1.85,0,*7C
1496808281.6,53917,16.0,73546.0,2.59,1.75,1.71,0,*7E
1496808282.8,53918,16.0,73544.8,2.59,1.83,1.83,0,*75
1496808284.0,53919,16.0,73550.5,2.59,1.83,1.83,0,*74
1496808285.2,53920,16.0,73548.5,2.59,1.83,1.75,0,*77
1496808286.41,53921,16.0,73548.8,2.61,1.79,1.85,0,*77
1496808287.61,53922,16.0,73548.3,2.59,1.83,1.75,0,*75
1496808288.83,53923,16.0,73546.8,2.59,1.83,1.63,0,*73
1496808290.04,53924,16.0,73546.8,2.59,1.75,1.75,0,*7A
1496808291.28,53925,16.0,73546.0,2.59,1.63,1.59,0,*72
1496808292.53,53926,16.0,73548.5,2.59,1.51,1.47,0,*7F
1496808293.75,53927,16.0,73542.3,2.59,1.47,1.41,0,*7F
1496808294.98,53928,16.0,73544.8,2.53,1.25,1.13,0,*79
1496808296.21,53929,16.0,73540.0,2.57,1.29,1.25,0,*75
1496808297.43,53930,16.0,73540.3,2.57,1.47,1.47,0,*71
1496808298.62,53931,16.0,73540.8,2.57,1.47,1.41,0,*76
1496808299.84,53932,16.0,73546.5,2.53,1.43,1.43,0,*77
1496808301.08,53933,16.0,73540.8,2.53,1.37,1.37,0,*76
1496808302.3,53934,16.0,73544.3,2.53,1.47,1.43,0,*75
1496808303.53,53935,16.0,73540.0,2.53,1.47,1.37,0,*77
1496808304.75,53936,16.0,73540.5,2.53,1.55,1.43,0,*74
1496808306.0,53937,15.94,73542.3,2.51,1.63,1.51,0,*71
1496808307.25,53938,16.0,73540.0,2.51,1.67,1.63,0,*7B
1496808308.47,53939,16.0,73542.3,2.51,1.75,1.67,0,*7D
1496808309.68,53940,16.0,73540.3,2.51,1.79,1.75,0,*7C
1496808310.88,53941,16.0,73544.0,2.51,1.83,1.83,0,*71
1496808312.11,53942,16.0,73544.0,2.53,1.93,1.85,0,*77
1496808313.32,53943,16.0,73546.5,2.53,1.93,1.83,0,*70
1496808314.55,53944,16.0,73550.3,2.53,1.97,1.85,0,*75
1496808315.78,53945,16.0,73554.3,2.53,1.97,1.97,0,*77
1496808317.0,53946,16.0,73550.3,2.53,2.05,2.05,0,*74
1496808318.23,53947,16.0,73544.8,2.53,2.05,1.97,0,*7D
1496808319.46,53948,16.0,73548.3,2.53,2.09,2.09,0,*7A
1496808320.63,53949,16.0,73546.8,2.53,2.31,2.27,0,*7C
1496808321.87,53950,16.0,73554.3,2.53,2.43,2.39,0,*7E
1496808323.1,53951,16.0,73550.0,2.57,2.43,2.43,0,*76
1496808324.3,53952,16.0,73556.8,2.57,2.31,2.25,0,*70
1496808325.47,53953,16.0,73554.3,2.57,2.31,2.31,0,*74
1496808326.69,53954,16.0,73554.3,2.57,2.09,2.01,0,*7B
1496808327.92,53955,16.0,73556.0,2.57,1.97,2.01,0,*7E
1496808329.15,53956,16.0,73558.8,2.57,2.21,2.13,0,*70
1496808330.37,53957,16.0,73558.0,2.57,2.21,2.13,0,*71
1496808331.63,53958,16.0,73558.8,2.59,2.09,2.09,0,*71
1496808332.88,53959,16.0,73552.8,2.59,2.09,2.01,0,*78
1496808334.13,53960,16.0,73552.0,2.59,1.97,1.85,0,*79
1496808335.36,53961,16.0,73550.3,2.59,1.85,1.83,0,*7D
1496808336.58,53962,16.0,73550.3,2.61,1.89,1.89,0,*73
1496808337.83,53963,16.0,73554.8,2.59,2.09,2.01,0,*71
1496808339.06,53964,16.0,73552.8,2.61,2.17,2.17,0,*75
1496808340.26,53965,16.0,73554.3,2.59,2.35,2.35,0,*7F
1496808341.46,53966,16.0,73556.8,2.59,2.35,2.35,0,*7C
1496808342.69,53967,16.0,73554.5,2.61,2.39,2.39,0,*76
1496808343.92,53968,16.0,73554.8,2.61,2.51,2.51,0,*79
1496808345.16,53969,16.0,73554.5,2.61,2.51,2.51,0,*78
1496808346.39,53970,16.0,73556.3,2.61,2.51,2.51,0,*70
1496808347.62,53971,16.0,73558.5,2.61,2.51,2.51,0,*71
1496808348.85,53972,16.0,73556.8,2.61,2.59,2.51,0,*7A
1496808350.1,53973,16.0,73556.0,2.63,2.59,2.59,0,*71
1496808351.31,53974,16.0,73554.8,2.65,2.69,2.65,0,*7C
1496808352.49,53975,16.0,73556.3,2.65,2.61,2.61,0,*71
1496808353.72,53976,16.0,73556.8,2.65,2.51,2.55,0,*76
1496808354.95,53977,16.0,73552.8,2.65,2.55,2.55,0,*73
1496808356.2,53978,16.0,73556.3,2.63,2.51,2.47,0,*7D
1496808357.41,53979,16.0,73556.3,2.67,2.65,2.65,0,*7F
1496808358.62,53980,16.0,73554.0,2.67,2.65,2.65,0,*79
1496808359.87,53981,16.0,73556.0,2.69,2.59,2.59,0,*76
1496808361.1,53982,16.0,73558.0,2.67,2.31,2.21,0,*7A
1496808362.35,53983,16.0,73558.0,2.67,2.43,2.43,0,*7A
1496808363.61,53984,16.0,73558.8,2.69,2.59,2.59,0,*73
1496808364.81,53985,16.0,73558.8,2.69,2.31,2.31,0,*72
1496808366.07,53986,16.0,73556.0,2.67,2.13,2.01,0,*7C
1496808367.32,53987,16.0,73556.3,2.69,2.09,1.97,0,*74
1496808368.57,53988,16.0,73556.5,2.67,2.09,2.01,0,*79
1496808369.8,53989,16.0,73556.3,2.67,2.31,2.25,0,*75
1496808371.03,53990,16.0,73558.0,2.69,2.31,2.25,0,*73
1496808372.27,53991,16.0,73556.0,2.67,2.09,1.97,0,*7D
1496808373.52,53992,16.0,73556.0,2.67,1.97,1.93,0,*7E
1496808374.79,53993,16.0,73554.5,2.69,1.85,1.85,0,*75
1496808376.04,53994,16.0,73558.5,2.67,1.93,1.85,0,*7B
1496808377.29,53995,16.0,73560.0,2.67,1.85,1.93,0,*7A
1496808378.52,53996,16.0,73560.0,2.67,1.85,1.83,0,*78
1496808379.75,53997,16.0,73564.0,2.67,1.93,1.83,0,*7E
1496808380.97,53998,16.0,73558.8,2.65,1.89,1.89,0,*72
1496808382.17,53999,16.0,73556.5,2.65,1.89,1.83,0,*79
1496808383.37,54000,16.0,73556.8,2.65,1.89,1.83,0,*77
1496808384.55,54001,16.0,73556.3,2.65,1.83,1.79,0,*79
1496808385.77,54002,16.0,73558.8,2.65,1.89,1.89,0,*7F
1496808386.94,54003,16.0,73558.5,2.65,1.83,1.83,0,*7E
1496808388.12,54004,16.0,73552.3,2.65,1.83,1.79,0,*7C
1496808389.33,54005,16.0,73558.3,2.65,1.79,1.67,0,*77
1496808390.53,54006,16.0,73558.3,2.63,1.79,1.75,0,*71
1496808391.73,54007,16.0,73556.8,2.63,1.79,1.75,0,*70
1496808392.93,54008,16.0,73558.8,2.65,1.89,1.79,0,*7A
1496808394.13,54009,16.0,73554.5,2.63,1.79,1.75,0,*7E
1496808395.35,54010,16.0,73554.0,2.63,1.79,1.67,0,*75
1496808396.58,54011,16.0,73552.8,2.65,1.71,1.71,0,*7D
1496808397.8,54012,16.0,73558.0,2.65,1.71,1.71,0,*7E
1496808399.02,54013,16.0,73558.3,2.65,1.89,1.93,0,*74
1496808400.28,54014,16.0,73556.3,2.63,1.85,1.85,0,*7E
1496808401.52,54015,16.0,73554.5,2.63,2.05,2.05,0,*7F
1496808402.77,54016,16.0,73556.8,2.63,2.25,2.17,0,*7D
1496808404.03,54017,16.0,73556.5,2.63,2.13,2.13,0,*7D
1496808405.28,54018,16.0,73556.8,2.63,2.17,2.17,0,*72
1496808406.54,54019,16.0,73556.0,2.63,2.17,2.13,0,*77
1496808407.77,54020,16.0,73552.8,2.65,2.21,2.17,0,*7A
1496808409.03,54021,16.0,73558.0,2.63,2.17,2.17,0,*78
1496808410.2,54022,16.0,73556.0,2.65,2.31,2.27,0,*7A
1496808411.43,54023,16.0,73556.3,2.63,2.39,2.35,0,*76
1496808412.63,54024,16.0,73552.8,2.65,2.39,2.27,0,*74
1496808413.86,54025,16.0,73552.0,2.65,2.17,2.05,0,*79
1496808415.1,54026,16.0,73554.8,2.65,2.17,2.05,0,*7A
1496808416.32,54027,16.0,73554.5,2.65,1.97,1.97,0,*78
1496808417.55,54028,16.0,73554.0,2.65,1.93,1.93,0,*77
1496808418.77,54029,16.0,73554.5,2.65,1.89,1.89,0,*76
1496808419.97,54030,16.0,73550.5,2.65,1.89,1.83,0,*74
1496808421.2,54031,16.0,73552.0,2.63,1.85,1.79,0,*7A
1496808422.41,54032,16.0,73548.0,2.65,1.89,1.89,0,*7C
1496808423.64,54033,16.0,73552.0,2.65,1.97,1.93,0,*79
1496808424.87,54034,16.0,73548.5,2.65,1.97,1.93,0,*7E
1496808426.09,54035,16.0,73552.3,2.65,1.93,1.97,0,*7F
1496808427.32,54036,16.0,73550.5,2.65,2.05,1.97,0,*70
1496808428.54,54037,16.0,73548.5,2.65,2.05,1.97,0,*71
1496808429.76,54038,16.0,73548.5,2.65,1.93,1.93,0,*76
1496808431.0,54039,16.0,73550.5,2.63,1.89,1.89,0,*71
1496808432.24,54040,16.0,73546.8,2.63,2.01,1.89,0,*7C
1496808433.48,54041,16.0,73548.5,2.63,1.93,1.89,0,*75
1496808434.71,54042,16.0,73550.5,2.65,2.05,1.97,0,*73
1496808435.93,54043,16.0,73550.0,2.65,2.05,1.97,0,*72
1496808437.18,54044,16.0,73550.3,2.63,2.01,1.93,0,*73
1496808438.4,54045,16.0,73548.5,2.65,2.09,1.97,0,*78
1496808439.65,54046,16.0,73548.8,2.63,2.05,2.01,0,*7D
1496808440.87,54047,16.0,73550.0,2.65,2.05,1.97,0,*76
1496808442.09,54048,16.0,73552.8,2.65,1.93,1.93,0,*71
1496808443.32,54049,16.0,73552.3,2.65,2.05,2.09,0,*7C
1496808444.55,54050,16.0,73552.0,2.65,2.17,2.21,0,*7D
1496808445.75,54051,16.0,73552.5,2.65,2.27,2.21,0,*7F
1496808446.96,54052,16.0,73556.0,2.65,2.27,2.17,0,*79
1496808448.21,54053,16.0,73552.3,2.63,2.13,2.25,0,*78
1496808449.44,54054,16.0,73550.8,2.65,2.17,2.21,0,*79
1496808450.67,54055,16.0,73552.5,2.65,2.21,2.17,0,*78
1496808451.89,54056,16.0,73548.0,2.65,2.21,2.21,0,*7E
1496808453.11,54057,16.0,73556.3,2.65,2.21,2.21,0,*7F
1496808454.31,54058,16.0,73554.0,2.67,2.35,2.31,0,*76
1496808455.56,54059,16.0,73554.0,2.67,2.47,2.43,0,*77
1496808456.82,54060,16.0,73552.3,2.69,2.59,2.59,0,*77
1496808458.03,54061,16.0,73556.0,2.69,2.65,2.65,0,*76
1496808459.24,54062,16.0,73554.3,2.67,2.65,2.65,0,*7B
1496808460.47,54063,16.0,73560.5,2.69,2.69,2.65,0,*78
1496808461.73,54064,16.0,73554.0,2.69,2.81,2.85,0,*77
1496808462.96,54065,16.0,73556.0,2.71,2.89,2.89,0,*7B
1496808464.22,54066,16.0,73556.0,2.73,2.89,2.89,0,*7A
1496808465.43,54067,16.0,73556.8,2.73,2.95,2.99,0,*77
1496808466.63,54068,16.0,73556.0,2.73,2.99,2.99,0,*74
1496808467.82,54069,16.0,73554.3,2.75,2.91,2.99,0,*7B
1496808469.03,54070,16.0,73556.3,2.75,2.99,3.03,0,*79
1496808470.26,54071,16.0,73554.0,2.79,3.03,3.03,0,*76
1496808471.53,54072,16.0,73554.8,2.81,3.15,3.07,0,*71
1496808472.78,54073,16.0,73558.5,2.81,3.19,3.19,0,*73
1496808474.01,54074,16.0,73562.8,2.83,3.33,3.33,0,*76
1496808475.25,54075,16.0,73560.3,2.83,3.41,3.33,0,*72
1496808476.48,54076,16.0,73560.0,2.83,3.41,3.41,0,*74
1496808477.72,54077,16.0,73556.8,2.83,3.41,3.41,0,*75
1496808478.95,54078,16.0,73558.0,2.87,3.45,3.45,0,*7E
1496808480.19,54079,16.0,73560.8,2.87,3.45,3.45,0,*7F
1496808481.38,54080,16.0,73564.8,2.87,3.49,3.59,0,*78
1496808482.61,54081,16.0,73568.0,2.91,3.49,3.53,0,*74
1496808483.83,54082,16.0,73564.5,2.91,3.53,3.53,0,*7C
1496808485.06,54083,16.0,73564.0,2.91,3.49,3.41,0,*75
1496808486.29,54084,16.0,73562.8,2.91,3.37,3.37,0,*7A
1496808487.46,54085,16.0,73564.8,2.95,3.29,3.29,0,*7F
1496808488.67,54086,16.0,73562.5,2.93,3.29,3.29,0,*7A
1496808489.88,54087,16.0,73564.0,2.95,3.33,3.19,0,*75
1496808491.11,54088,16.0,73562.0,2.95,3.23,3.23,0,*72
1496808492.37,54089,16.0,73558.3,2.97,3.11,3.11,0,*71
1496808493.62,54090,16.0,73562.0,2.97,3.03,3.11,0,*7A
1496808494.83,54091,16.0,73564.8,2.97,2.95,2.95,0,*78
1496808496.03,54092,16.0,73562.3,2.97,2.95,2.95,0,*7B
1496808497.28,54093,16.0,73566.5,2.97,2.89,2.89,0,*7A
1496808498.55,54094,16.0,73564.3,2.97,3.03,3.03,0,*7D
1496808499.72,54095,16.0,73566.8,3.01,2.99,2.95,0,*7E
1496808500.92,54096,16.0,73566.5,2.97,2.99,2.95,0,*73
1496808502.1,54097,16.0,73568.3,3.01,2.95,2.95,0,*70
1496808503.33,54098,16.0,73568.5,3.01,2.77,2.77,0,*7F
1496808504.55,54099,16.0,73570.0,3.01,2.89,2.85,0,*72
1496808505.77,54100,16.0,73572.5,3.01,2.85,2.77,0,*72
1496808507.0,54101,16.0,73570.3,3.01,2.77,2.77,0,*7E
1496808508.22,54102,16.0,73570.8,3.01,2.73,2.73,0,*7D
1496808509.43,54103,16.0,73570.3,3.01,2.73,2.61,0,*7F
1496808510.66,54104,16.0,73568.8,3.01,2.51,2.51,0,*7B
1496808511.89,54105,16.0,73572.5,3.01,2.51,2.43,0,*79
1496808513.12,54106,16.0,73568.3,3.01,2.39,2.39,0,*79
1496808514.35,54107,16.0,73570.5,2.97,2.27,2.25,0,*74
1496808515.56,54108,16.0,73566.8,2.97,2.27,2.27,0,*79
1496808516.76,54109,16.0,73566.8,2.97,2.27,2.27,0,*78
1496808517.99,54110,16.0,73566.5,3.01,2.25,2.17,0,*7F
1496808519.25,54111,16.0,73564.8,2.97,2.25,2.13,0,*74
1496808520.51,54112,16.0,73568.0,2.97,2.17,2.17,0,*72
1496808521.74,54113,16.0,73564.5,2.97,2.27,2.25,0,*71
1496808522.97,54114,16.0,73568.5,2.97,2.27,2.25,0,*76
1496808524.2,54115,16.0,73564.5,2.95,2.25,2.25,0,*77
1496808525.42,54116,16.0,73564.8,2.93,2.35,2.25,0,*73
1496808526.59,54117,16.0,73566.8,2.95,2.27,2.27,0,*75
1496808527.84,54118,16.0,73566.0,2.93,2.25,2.25,0,*7C
1496808529.06,54119,16.0,73564.3,2.95,2.13,2.21,0,*7A
1496808530.3,54120,16.0,73564.5,2.93,2.21,2.21,0,*77
1496808531.55,54121,16.0,73562.8,2.93,2.25,2.21,0,*72
1496808532.74,54122,16.0,73562.3,2.93,2.27,2.27,0,*75
1496808534.0,54123,16.0,73562.5,2.93,2.39,2.39,0,*74
1496808535.23,54124,16.0,73560.0,2.95,2.51,2.51,0,*75
1496808536.45,54125,16.0,73560.3,2.93,2.73,2.61,0,*71
1496808537.7,54126,16.0,73560.0,2.93,2.73,2.69,0,*7A
1496808538.92,54127,16.0,73560.8,2.95,2.85,2.81,0,*72
1496808540.12,54128,16.0,73558.5,2.95,2.85,2.91,0,*7C
1496808541.32,54129,16.0,73560.8,2.93,2.91,2.91,0,*7E
1496808542.51,54130,16.0,73562.8,2.95,2.85,2.91,0,*75